Flag for U.S.A. Weather past 2 weeks in Portland, Oregon, U.S.A.

Now
59 °F

Mostly cloudy.


Feels Like: 58 °F
Forecast: 52 / 78 °F
Wind: 7 mph from Southwest

Location: Portland International Airport

Current Time: Apr 26, 2015 at 6:20:31 PM

Latest Report: Apr 26, 2015 at 5:53 PM


Visibility: 10 mi

Pressure: 30.25 "Hg

Humidity: 58%

Dew point: 44 °F

Location of PortlandLocation

Historic Weather in Portland — Graph

°F

Portland temperature yesterday

Maximum temperature yesterday: 61 °F (at 4:53 PM)
Minimum temperature yesterday: 45 °F (at 6:53 AM)
Average temperature yesterday: 53 °F

Past Weeks' High & Low Weather Summary

 TemperatureHumidityPressure
High80 °F (Apr 20, 3:53 PM)100% (Apr 14, 11:53 PM)30.58 "Hg (Apr 14, 11:53 PM)
Low36 °F (Apr 15, 3:53 AM)23% (Apr 20, 3:53 PM)29.78 "Hg (Apr 20, 6:53 PM)
Average53 °F68%30.12 "Hg
* Reported Apr 11 4:53 PM — Apr 26 4:53 PM, Portland, Weather by CustomWeather, © 2015

Note: Actual official high and low records may vary slightly from our data, if they occured in-between our weather recording intervals... More about our weather records

Advertising

Portland weather history for previous 24 hours

 ConditionsComfort  
Time TempWeatherWind HumidityBarometerVisibility
4:53 PM
Sun, Apr 26
60 °FMostly cloudy.10 mph53%30.25 "Hg10 mi
3:53 PM60 °FMostly cloudy.6 mph52%30.25 "Hg10 mi
2:53 PM59 °FMostly cloudy.6 mph51%30.25 "Hg10 mi
1:53 PM60 °FMostly cloudy.10 mph47%30.24 "Hg10 mi
12:53 PM57 °FMostly cloudy.5 mph58%30.24 "Hg10 mi
11:53 AM54 °FMostly cloudy.6 mph62%30.25 "Hg10 mi
10:53 AM52 °FMostly cloudy.3 mph69%30.25 "Hg10 mi
9:53 AM50 °FMostly cloudy.7 mph74%30.22 "Hg10 mi
8:53 AM46 °FOvercast.7 mph83%30.23 "Hg10 mi
7:53 AM45 °FMore clouds than sun.10 mph90%30.20 "Hg10 mi
6:53 AM44 °FPassing clouds.6 mph85%30.19 "Hg10 mi
5:53 AM42 °FPassing clouds.7 mph89%30.16 "Hg10 mi
4:53 AM43 °FPassing clouds.9 mph86%30.15 "Hg10 mi
3:53 AM42 °FClear.7 mph89%30.15 "Hg10 mi
2:53 AM44 °FClear.7 mph79%30.13 "Hg10 mi
1:53 AM44 °FClear.3 mph76%30.12 "Hg10 mi
12:53 AM47 °FClear.No wind66%30.11 "Hg10 mi
11:53 PM
Sat, Apr 25
49 °FClear.3 mph59%30.10 "Hg10 mi
10:53 PM50 °FClear.5 mph59%30.08 "Hg10 mi
9:53 PM51 °FPassing clouds.7 mph52%30.07 "Hg10 mi
8:53 PM55 °FScattered clouds.8 mph42%30.05 "Hg10 mi
7:53 PM55 °FPartly sunny.7 mph55%30.03 "Hg10 mi
6:53 PM59 °FBroken clouds.N/A44%30.00 "Hg10 mi
Weather by CustomWeather, © 2015

See weather overviewHow to use our weather pages